LNK264 FAOR-FXMM

Flight info

Callsign LNK264
Flight time 0h 56m
Altitude 22000
Route HGV5D HGV DCT NEVEN DCT ATUXO DCT MZV
Aircraft DH8Q/M-SDE2E3FGRY/H

Departure

Time 2026-04-26 08:34
Airport O.R. Tambo International Airport (FAOR)

Arrival

Time 2026-04-26 09:30
Airport Moshoeshoe I International Airport (FXMM)
Time Latitude Longitude Altitude Speed Heading
2026-04-26 08:01 -26.13748 28.22849 5566 ft 0 kts
2026-04-26 08:24 -26.13747 28.22849 5566 ft 0 kts
2026-04-26 08:24 -26.13742 28.22850 5566 ft 1 kts
2026-04-26 08:24 -26.13729 28.22858 5566 ft 3 kts 47°
2026-04-26 08:25 -26.13724 28.22885 5566 ft 4 kts 97°
2026-04-26 08:25 -26.13745 28.22902 5566 ft 4 kts 172°
2026-04-26 08:25 -26.13772 28.22917 5566 ft 5 kts 131°
2026-04-26 08:25 -26.13782 28.22956 5566 ft 6 kts 97°
2026-04-26 08:26 -26.13788 28.23009 5566 ft 7 kts 97°
2026-04-26 08:26 -26.13794 28.23070 5566 ft 9 kts 95°
2026-04-26 08:26 -26.13799 28.23141 5566 ft 10 kts 95°
2026-04-26 08:26 -26.13806 28.23216 5566 ft 9 kts 96°
2026-04-26 08:27 -26.13812 28.23278 5566 ft 7 kts 98°
2026-04-26 08:27 -26.13826 28.23335 5566 ft 8 kts 109°
2026-04-26 08:27 -26.13845 28.23397 5566 ft 9 kts 109°
2026-04-26 08:27 -26.13862 28.23455 5566 ft 6 kts 107°
2026-04-26 08:28 -26.13891 28.23488 5566 ft 7 kts 168°
2026-04-26 08:28 -26.13939 28.23482 5566 ft 7 kts 194°
2026-04-26 08:28 -26.13989 28.23466 5566 ft 8 kts 196°
2026-04-26 08:28 -26.14040 28.23450 5566 ft 8 kts 196°
2026-04-26 08:29 -26.14090 28.23434 5566 ft 8 kts 196°
2026-04-26 08:29 -26.14141 28.23417 5566 ft 8 kts 196°
2026-04-26 08:29 -26.14192 28.23401 5566 ft 8 kts 195°
2026-04-26 08:29 -26.14245 28.23385 5566 ft 8 kts 195°
2026-04-26 08:30 -26.14298 28.23368 5566 ft 8 kts 195°
2026-04-26 08:30 -26.14351 28.23352 5566 ft 8 kts 196°
2026-04-26 08:30 -26.14408 28.23334 5566 ft 9 kts 196°
2026-04-26 08:30 -26.14459 28.23321 5566 ft 7 kts 177°
2026-04-26 08:31 -26.14491 28.23355 5566 ft 7 kts 114°
2026-04-26 08:31 -26.14496 28.23371 5566 ft 0 kts 107°
2026-04-26 08:32 -26.14497 28.23373 5566 ft 1 kts 107°
2026-04-26 08:32 -26.14500 28.23386 5566 ft 3 kts 107°
2026-04-26 08:32 -26.14510 28.23443 5566 ft 12 kts 82°
2026-04-26 08:33 -26.14415 28.23504 5566 ft 25 kts 13°
2026-04-26 08:33 -26.14111 28.23597 5566 ft 73 kts 14°
2026-04-26 08:33 -26.13444 28.23798 5566 ft 124 kts 15°
2026-04-26 08:33 -26.12469 28.24102 5605 ft 158 kts 13°
2026-04-26 08:34 -26.11319 28.24434 5855 ft 178 kts 14°
2026-04-26 08:34 -26.10086 28.24822 6332 ft 182 kts 15°
2026-04-26 08:34 -26.08842 28.25212 6885 ft 182 kts 13°
2026-04-26 08:34 -26.07570 28.25530 7369 ft 186 kts 10°
2026-04-26 08:35 -26.06250 28.25772 7812 ft 191 kts
2026-04-26 08:35 -26.04907 28.26103 8074 ft 209 kts 23°
2026-04-26 08:35 -26.03711 28.27161 8015 ft 235 kts 52°
2026-04-26 08:35 -26.03062 28.28867 8155 ft 245 kts 81°
2026-04-26 08:36 -26.03184 28.30760 8409 ft 249 kts 107°
2026-04-26 08:36 -26.04073 28.32432 8665 ft 251 kts 134°
2026-04-26 08:36 -26.05529 28.33486 8918 ft 252 kts 160°
2026-04-26 08:36 -26.07258 28.33775 9178 ft 255 kts 179°
2026-04-26 08:37 -26.09033 28.33686 9434 ft 258 kts 183°
2026-04-26 08:37 -26.10825 28.33567 9685 ft 260 kts 183°
2026-04-26 08:37 -26.12636 28.33459 9936 ft 262 kts 183°
2026-04-26 08:37 -26.14453 28.33332 10186 ft 264 kts 184°
2026-04-26 08:38 -26.16282 28.33183 10436 ft 265 kts 184°
2026-04-26 08:38 -26.18119 28.33025 10687 ft 266 kts 185°
2026-04-26 08:38 -26.19963 28.32864 10938 ft 267 kts 185°
2026-04-26 08:38 -26.21811 28.32700 11189 ft 268 kts 185°
2026-04-26 08:39 -26.23669 28.32535 11439 ft 270 kts 185°
2026-04-26 08:39 -26.25541 28.32368 11690 ft 271 kts 185°
2026-04-26 08:39 -26.27445 28.32198 11944 ft 273 kts 185°
2026-04-26 08:39 -26.29339 28.32035 12282 ft 275 kts 185°
2026-04-26 08:40 -26.31246 28.31874 12658 ft 277 kts 185°
2026-04-26 08:40 -26.33171 28.31706 13034 ft 280 kts 186°
2026-04-26 08:40 -26.35121 28.31531 13411 ft 284 kts 186°
2026-04-26 08:40 -26.37090 28.31353 13787 ft 287 kts 186°
2026-04-26 08:41 -26.39086 28.31171 14164 ft 290 kts 186°
2026-04-26 08:41 -26.41101 28.30987 14540 ft 294 kts 186°
2026-04-26 08:41 -26.43150 28.30799 14918 ft 298 kts 186°
2026-04-26 08:41 -26.45221 28.30609 15295 ft 302 kts 186°
2026-04-26 08:42 -26.47336 28.30415 15675 ft 306 kts 186°
2026-04-26 08:42 -26.49462 28.30220 16051 ft 309 kts 186°
2026-04-26 08:42 -26.51620 28.30021 16429 ft 312 kts 186°
2026-04-26 08:42 -26.53821 28.29817 16812 ft 314 kts 186°
2026-04-26 08:43 -26.55965 28.29619 17182 ft 315 kts 186°
2026-04-26 08:43 -26.58170 28.29414 17561 ft 317 kts 186°
2026-04-26 08:43 -26.60401 28.29206 17944 ft 318 kts 187°
2026-04-26 08:43 -26.62640 28.28997 18326 ft 318 kts 187°
2026-04-26 08:44 -26.64857 28.28788 18704 ft 319 kts 187°
2026-04-26 08:44 -26.67085 28.28576 19084 ft 319 kts 187°
2026-04-26 08:44 -26.69306 28.28350 19460 ft 319 kts 188°
2026-04-26 08:44 -26.71480 28.27914 19836 ft 317 kts 195°
2026-04-26 08:45 -26.73426 28.27324 20182 ft 317 kts 198°
2026-04-26 08:45 -26.74822 28.26874 20426 ft 311 kts 199°
2026-04-26 08:45 -26.76664 28.26286 20760 ft 301 kts 198°
2026-04-26 08:45 -26.78562 28.25699 21020 ft 296 kts 198°
2026-04-26 08:46 -26.80421 28.25143 21254 ft 292 kts 198°
2026-04-26 08:46 -26.82388 28.24563 21505 ft 287 kts 198°
2026-04-26 08:46 -26.84311 28.24019 21752 ft 284 kts 197°
2026-04-26 08:46 -26.86234 28.23535 21881 ft 286 kts 195°
2026-04-26 08:47 -26.88188 28.23080 21944 ft 289 kts 195°
2026-04-26 08:47 -26.90152 28.22634 21976 ft 293 kts 194°
2026-04-26 08:47 -26.92154 28.22175 21986 ft 296 kts 195°
2026-04-26 08:47 -26.94137 28.21537 21992 ft 297 kts 202°
2026-04-26 08:48 -26.96060 28.20758 21995 ft 300 kts 203°
2026-04-26 08:48 -26.97977 28.20004 21995 ft 303 kts 201°
2026-04-26 08:48 -26.99993 28.19284 21995 ft 306 kts 200°
2026-04-26 08:48 -27.02050 28.18623 21994 ft 309 kts 198°
2026-04-26 08:49 -27.04121 28.18011 21995 ft 311 kts 197°
2026-04-26 08:49 -27.06259 28.17408 21994 ft 313 kts 197°
2026-04-26 08:49 -27.08373 28.16814 21994 ft 314 kts 197°
2026-04-26 08:49 -27.10488 28.16209 21994 ft 315 kts 197°
2026-04-26 08:50 -27.12597 28.15591 21994 ft 316 kts 198°
2026-04-26 08:50 -27.14723 28.14959 21994 ft 317 kts 198°
2026-04-26 08:50 -27.16884 28.14314 21994 ft 317 kts 198°
2026-04-26 08:50 -27.19047 28.13667 21994 ft 318 kts 198°
2026-04-26 08:51 -27.23418 28.12361 21994 ft 319 kts 198°
2026-04-26 08:51 -27.25607 28.11707 21994 ft 319 kts 198°
2026-04-26 08:51 -27.27794 28.11053 21994 ft 320 kts 198°
2026-04-26 08:52 -27.29958 28.10413 21994 ft 320 kts 198°
2026-04-26 08:52 -27.32139 28.09767 21994 ft 320 kts 198°
2026-04-26 08:52 -27.34339 28.09110 21994 ft 320 kts 198°
2026-04-26 08:52 -27.36465 28.08471 21994 ft 320 kts 198°
2026-04-26 08:53 -27.38588 28.07833 21994 ft 320 kts 198°
2026-04-26 08:53 -27.40772 28.07177 21994 ft 320 kts 198°
2026-04-26 08:53 -27.42895 28.06541 21994 ft 321 kts 198°
2026-04-26 08:53 -27.45077 28.05887 21994 ft 321 kts 198°
2026-04-26 08:54 -27.47261 28.05232 21994 ft 321 kts 198°
2026-04-26 08:54 -27.49419 28.04574 21993 ft 321 kts 199°
2026-04-26 08:54 -27.51572 28.03862 21994 ft 321 kts 200°
2026-04-26 08:54 -27.53725 28.03097 21996 ft 321 kts 201°
2026-04-26 08:55 -27.55857 28.02312 21997 ft 321 kts 201°
2026-04-26 08:55 -27.58002 28.01521 21998 ft 321 kts 201°
2026-04-26 08:55 -27.60149 28.00742 22000 ft 322 kts 201°
2026-04-26 08:55 -27.62330 27.99965 22011 ft 321 kts 200°
2026-04-26 08:56 -27.64471 27.99208 22019 ft 321 kts 200°
2026-04-26 08:56 -27.65892 27.98708 22022 ft 321 kts 200°
2026-04-26 08:56 -27.68742 27.97704 22025 ft 321 kts 200°
2026-04-26 08:56 -27.70881 27.96950 22027 ft 322 kts 200°
2026-04-26 08:57 -27.73011 27.96198 22029 ft 322 kts 200°
2026-04-26 08:57 -27.75163 27.95437 22030 ft 322 kts 200°
2026-04-26 08:57 -27.77292 27.94684 22031 ft 322 kts 200°
2026-04-26 08:57 -27.79426 27.93933 22028 ft 322 kts 200°
2026-04-26 08:58 -27.81591 27.93174 22024 ft 322 kts 200°
2026-04-26 08:58 -27.83761 27.92406 22023 ft 322 kts 201°
2026-04-26 08:58 -27.85934 27.91634 22022 ft 322 kts 201°
2026-04-26 08:58 -27.88083 27.90870 22026 ft 322 kts 201°
2026-04-26 08:59 -27.90247 27.90100 22030 ft 322 kts 201°
2026-04-26 08:59 -27.92440 27.89320 22032 ft 322 kts 201°
2026-04-26 08:59 -27.94593 27.88553 22040 ft 322 kts 201°
2026-04-26 08:59 -27.96723 27.87796 22046 ft 321 kts 201°
2026-04-26 09:00 -27.98872 27.87034 22044 ft 322 kts 200°
2026-04-26 09:00 -28.01038 27.86401 22043 ft 324 kts 195°
2026-04-26 09:00 -28.03256 27.85915 22042 ft 325 kts 194°
2026-04-26 09:00 -28.05478 27.85472 22046 ft 325 kts 193°
2026-04-26 09:01 -28.07696 27.85032 22052 ft 325 kts 194°
2026-04-26 09:01 -28.09933 27.84574 22055 ft 324 kts 194°
2026-04-26 09:01 -28.12164 27.84101 22057 ft 324 kts 194°
2026-04-26 09:01 -28.14366 27.83625 22053 ft 324 kts 194°
2026-04-26 09:02 -28.16466 27.83166 22048 ft 325 kts 194°
2026-04-26 09:02 -28.18700 27.82680 22057 ft 324 kts 194°
2026-04-26 09:02 -28.20911 27.82204 22069 ft 324 kts 194°
2026-04-26 09:02 -28.23120 27.81730 22079 ft 324 kts 194°
2026-04-26 09:03 -28.25333 27.81255 22087 ft 324 kts 194°
2026-04-26 09:03 -28.27534 27.80782 22091 ft 324 kts 194°
2026-04-26 09:03 -28.29747 27.80309 22094 ft 324 kts 194°
2026-04-26 09:03 -28.31928 27.79841 22097 ft 324 kts 194°
2026-04-26 09:04 -28.34136 27.79363 22102 ft 323 kts 194°
2026-04-26 09:04 -28.36335 27.78885 22107 ft 323 kts 194°
2026-04-26 09:04 -28.38548 27.78405 22111 ft 323 kts 194°
2026-04-26 09:04 -28.40754 27.77927 22117 ft 323 kts 194°
2026-04-26 09:05 -28.42973 27.77446 22122 ft 323 kts 194°
2026-04-26 09:05 -28.45195 27.76966 22130 ft 323 kts 194°
2026-04-26 09:05 -28.47457 27.76477 22141 ft 323 kts 194°
2026-04-26 09:05 -28.49652 27.76003 22158 ft 322 kts 194°
2026-04-26 09:06 -28.51846 27.75529 22172 ft 322 kts 194°
2026-04-26 09:06 -28.53304 27.75213 22177 ft 322 kts 194°
2026-04-26 09:06 -28.56237 27.74578 22182 ft 322 kts 194°
2026-04-26 09:06 -28.58391 27.74110 22188 ft 322 kts 194°
2026-04-26 09:07 -28.59848 27.73794 22192 ft 322 kts 194°
2026-04-26 09:07 -28.62780 27.73157 22200 ft 322 kts 194°
2026-04-26 09:07 -28.64237 27.72841 22205 ft 322 kts 194°
2026-04-26 09:07 -28.66465 27.72358 22218 ft 322 kts 194°
2026-04-26 09:08 -28.69366 27.71729 22244 ft 322 kts 194°
2026-04-26 09:08 -28.71564 27.71251 22048 ft 325 kts 195°
2026-04-26 09:08 -28.73060 27.70921 21847 ft 325 kts 195°
2026-04-26 09:08 -28.75271 27.70435 21544 ft 325 kts 195°
2026-04-26 09:09 -28.77474 27.69954 21245 ft 323 kts 195°
2026-04-26 09:09 -28.79659 27.69484 20945 ft 321 kts 195°
2026-04-26 09:09 -28.81844 27.69023 20645 ft 319 kts 195°
2026-04-26 09:09 -28.84010 27.68560 20348 ft 317 kts 195°
2026-04-26 09:10 -28.86162 27.68090 20060 ft 315 kts 195°
2026-04-26 09:10 -28.88300 27.67621 19768 ft 313 kts 195°
2026-04-26 09:10 -28.90423 27.67153 19475 ft 311 kts 195°
2026-04-26 09:10 -28.92533 27.66686 19182 ft 310 kts 195°
2026-04-26 09:11 -28.94633 27.66222 18893 ft 308 kts 195°
2026-04-26 09:11 -28.96750 27.65756 18600 ft 306 kts 195°
2026-04-26 09:11 -28.98802 27.65305 18315 ft 305 kts 195°
2026-04-26 09:11 -29.00872 27.64852 18026 ft 304 kts 195°
2026-04-26 09:12 -29.02930 27.64403 17746 ft 302 kts 195°
2026-04-26 09:12 -29.04978 27.63958 17464 ft 300 kts 194°
2026-04-26 09:12 -29.07007 27.63513 17180 ft 297 kts 194°
2026-04-26 09:12 -29.09017 27.63072 16900 ft 294 kts 195°
2026-04-26 09:13 -29.11012 27.62634 16622 ft 291 kts 194°
2026-04-26 09:13 -29.12985 27.62204 16352 ft 289 kts 194°
2026-04-26 09:13 -29.14938 27.61776 16079 ft 286 kts 194°
2026-04-26 09:13 -29.16881 27.61351 15808 ft 284 kts 194°
2026-04-26 09:14 -29.18801 27.60932 15540 ft 281 kts 194°
2026-04-26 09:14 -29.20705 27.60514 15271 ft 278 kts 194°
2026-04-26 09:14 -29.22618 27.60092 15004 ft 276 kts 194°
2026-04-26 09:14 -29.24490 27.59680 14742 ft 274 kts 194°
2026-04-26 09:15 -29.26352 27.59270 14481 ft 273 kts 194°
2026-04-26 09:15 -29.28203 27.58863 14221 ft 271 kts 194°
2026-04-26 09:15 -29.30046 27.58458 13963 ft 270 kts 194°
2026-04-26 09:15 -29.31884 27.58055 13705 ft 269 kts 194°
2026-04-26 09:16 -29.33712 27.57656 13448 ft 269 kts 194°
2026-04-26 09:16 -29.35541 27.57260 13194 ft 268 kts 193°
2026-04-26 09:16 -29.37372 27.56901 12944 ft 268 kts 192°
2026-04-26 09:16 -29.39203 27.56579 12695 ft 267 kts 191°
2026-04-26 09:17 -29.40992 27.56280 12451 ft 267 kts 191°
2026-04-26 09:17 -29.42829 27.55978 12101 ft 269 kts 191°
2026-04-26 09:17 -29.44670 27.55679 11654 ft 269 kts 191°
2026-04-26 09:17 -29.46534 27.55382 11201 ft 269 kts 191°
2026-04-26 09:18 -29.48376 27.55090 10753 ft 268 kts 192°
2026-04-26 09:18 -29.50082 27.54368 10296 ft 261 kts 217°
2026-04-26 09:18 -29.51277 27.52880 9848 ft 255 kts 244°
2026-04-26 09:18 -29.51694 27.50974 9703 ft 242 kts 270°
2026-04-26 09:19 -29.51494 27.49079 9765 ft 239 kts 282°
2026-04-26 09:19 -29.51127 27.47208 9776 ft 243 kts 286°
2026-04-26 09:19 -29.50272 27.45552 9779 ft 244 kts 313°
2026-04-26 09:19 -29.48850 27.44511 9792 ft 246 kts 335°
2026-04-26 09:20 -29.47227 27.43877 9758 ft 248 kts 340°
2026-04-26 09:20 -29.45578 27.43286 9633 ft 251 kts 340°
2026-04-26 09:20 -29.43917 27.42671 9509 ft 252 kts 339°
2026-04-26 09:20 -29.42183 27.42372 9375 ft 257 kts
2026-04-26 09:21 -29.40407 27.42808 9257 ft 261 kts 14°
2026-04-26 09:21 -29.38684 27.43444 9134 ft 261 kts 15°
2026-04-26 09:21 -29.36958 27.44074 9010 ft 262 kts 14°
2026-04-26 09:21 -29.35220 27.44692 8865 ft 263 kts 14°
2026-04-26 09:22 -29.33458 27.45309 8613 ft 268 kts 14°
2026-04-26 09:22 -29.31652 27.45836 8375 ft 270 kts
2026-04-26 09:22 -29.29810 27.45904 8108 ft 262 kts 355°
2026-04-26 09:22 -29.28028 27.45705 7850 ft 254 kts 354°
2026-04-26 09:23 -29.26312 27.45929 7625 ft 247 kts 19°
2026-04-26 09:23 -29.24944 27.47008 7552 ft 236 kts 46°
2026-04-26 09:23 -29.24028 27.48513 7508 ft 226 kts 57°
2026-04-26 09:23 -29.23385 27.50098 7484 ft 215 kts 71°
2026-04-26 09:24 -29.23099 27.51753 7482 ft 203 kts 80°
2026-04-26 09:24 -29.22924 27.53327 7481 ft 193 kts 81°
2026-04-26 09:24 -29.22770 27.54829 7483 ft 185 kts 84°
2026-04-26 09:24 -29.22919 27.56273 7478 ft 180 kts 104°
2026-04-26 09:25 -29.23374 27.57626 7490 ft 181 kts 112°
2026-04-26 09:25 -29.24162 27.58762 7485 ft 183 kts 142°
2026-04-26 09:25 -29.25286 27.59468 7505 ft 184 kts 156°
2026-04-26 09:25 -29.26527 27.59831 7538 ft 186 kts 171°
2026-04-26 09:26 -29.27834 27.59896 7506 ft 189 kts 181°
2026-04-26 09:26 -29.29148 27.59833 7498 ft 187 kts 184°
2026-04-26 09:26 -29.30427 27.59703 7483 ft 181 kts 186°
2026-04-26 09:26 -29.31658 27.59518 7477 ft 174 kts 189°
2026-04-26 09:27 -29.32838 27.59296 7426 ft 173 kts 190°
2026-04-26 09:27 -29.34043 27.59029 7193 ft 183 kts 191°
2026-04-26 09:27 -29.35332 27.58700 6928 ft 193 kts 192°
2026-04-26 09:27 -29.36665 27.58325 6645 ft 199 kts 194°
2026-04-26 09:28 -29.37977 27.57934 6377 ft 189 kts 194°
2026-04-26 09:28 -29.39190 27.57564 6136 ft 174 kts 194°
2026-04-26 09:28 -29.40349 27.57207 5916 ft 174 kts 194°
2026-04-26 09:28 -29.41519 27.56850 5684 ft 175 kts 194°
2026-04-26 09:29 -29.42697 27.56498 5495 ft 173 kts 193°
2026-04-26 09:29 -29.43833 27.56173 5403 ft 166 kts 194°
2026-04-26 09:29 -29.44855 27.55860 5356 ft 132 kts 193°
2026-04-26 09:29 -29.45532 27.55661 5356 ft 75 kts 195°
2026-04-26 09:30 -29.45955 27.55536 5356 ft 61 kts 194°
2026-04-26 09:30 -29.46262 27.55444 5356 ft 17 kts 194°
2026-04-26 09:30 -29.46315 27.55445 5356 ft 3 kts 144°
2026-04-26 09:30 -29.46318 27.55450 5356 ft 0 kts 127°
2026-04-26 09:31 -29.46325 27.55467 5356 ft 5 kts 105°
2026-04-26 09:31 -29.46326 27.55512 5356 ft 5 kts 88°
2026-04-26 09:31 -29.46323 27.55553 5356 ft 5 kts 85°
2026-04-26 09:31 -29.46321 27.55590 5356 ft 4 kts 85°
2026-04-26 09:32 -29.46318 27.55627 5356 ft 5 kts 85°
2026-04-26 09:32 -29.46314 27.55672 5356 ft 6 kts 85°
2026-04-26 09:32 -29.46311 27.55726 5356 ft 7 kts 87°
2026-04-26 09:32 -29.46309 27.55783 5356 ft 6 kts 85°
2026-04-26 09:33 -29.46281 27.55824 5356 ft 7 kts 25°
2026-04-26 09:33 -29.46230 27.55841 5356 ft 8 kts 14°
2026-04-26 09:33 -29.46173 27.55859 5356 ft 9 kts 16°
2026-04-26 09:33 -29.46110 27.55879 5356 ft 10 kts 14°
2026-04-26 09:34 -29.46053 27.55894 5356 ft 6 kts 13°
2026-04-26 09:34 -29.46037 27.55906 5356 ft 2 kts 55°
2026-04-26 09:34 -29.46033 27.55925 5356 ft 3 kts 90°
2026-04-26 09:34 -29.46035 27.55938 5356 ft 0 kts 102°